Simultaneous Nadir Overpasses (SNOs) Predictions

Prediction of SNOs between GOES-14 and AQUA Satellite Orbit:

Table of predicted SNOs for the next 14.0 days since TLE Epoch: 3/22/2019
Index Date Time (GOES-14) GOES-14 Lat,Lon AQUA Lat,Lon Distance(km) Time Diff (sec)
1 03/24/2019 20:30:30 -0.10,-104.30 -0.01,-103.98 37.77 80
2 03/26/2019 20:18:19 -0.10,-104.31 0.58,-101.02 374.12 80
3 03/27/2019 08:39:36 0.10,-104.41 0.48,-106.18 201.39 80
4 03/29/2019 08:30:06 0.11,-104.42 -0.16,-103.23 135.37 80
5 03/29/2019 20:51:29 -0.11,-104.34 -0.98,-108.41 463.99 80
6 03/31/2019 08:17:55 0.11,-104.43 -0.75,-100.27 472.36 80
7 03/31/2019 20:39:19 -0.11,-104.34 -0.33,-105.47 127.27 80
8 04/02/2019 20:24:28 -0.12,-104.35 0.27,-102.51 209.60 80
9 04/03/2019 08:45:45 0.12,-104.43 0.80,-107.67 368.30 80
10 04/05/2019 08:33:34 0.12,-104.45 0.20,-104.71 31.07 80




NCC Satellite Simultaneous Nadir Overpasses (SNOs) Prediction Service
